Fremont, NE

10:21 AM CST on January 22, 2018 (GMT -0600)
Fremont Municipal

Weather History for KFET - September, 2012

Change the Weather History Date:

Wednesday, September 26, 2012

  Actual Average Record
Temperature  
Mean Temperature 61 °F -  
Max Temperature 78 °F 76 °F 94 °F (1954)
Min Temperature 44 °F 47 °F 26 °F (1984)
Degree Days  
Heating Degree Days 4    
Growing Degree Days 11 (Base 50)    
Moisture  
Dew Point 35 °F    
Average Humidity 42    
Maximum Humidity 79    
Minimum Humidity 17    
Precipitation  
Precipitation 0.00 in - - ()
Sea Level Pressure  
Sea Level Pressure 30.06 in    
Wind  
Wind Speed 2 mph (NNE)    
Max Wind Speed 9 mph    
Max Gust Speed 16 mph    
Visibility 10 miles    
Events      
Averages and records for this station are not official NWS values.
T = Trace of Precipitation, MM = Missing Value Source: NWS Daily Summary

Daily Weather History Graph

Daily Weather History Graph

Search for Another Location

Airport or City:

Trip Planner

Search our weather history database for the weather conditions in past years. The results will help you decide how hot, cold, wet, or windy it might be!

Date:

Astronomy

Sep. 26, 2012 Rise Set
Actual Time 7:18 AM CDT 7:15 PM CDT
Civil Twilight 6:50 AM CDT 7:43 PM CDT
Nautical Twilight 6:18 AM CDT 8:15 PM CDT
Astronomical Twilight 5:45 AM CDT 8:47 PM CDT
Moon 5:17 PM CDT (9/26) 3:43 AM CDT (9/26)
Length of Visible Light 12h 52m
Length of Day
11h 57m
Waxing Gibbous, 88% of the Moon is Illuminated
Sep 26
Waxing Gibbous
Sep 29
Full
Oct 8
Last Quarter
Oct 15
New
Oct 21
First Quarter

Hourly Weather History & Observations

Time (CDT) Temp. Dew Point Humidity Pressure Visibility Wind Dir Wind Speed Gust Speed Precip Events Conditions
12:15 AM 61.0 °F 41.9 °F 49% 29.93 in 10.0 mi Calm Calm - N/A   Clear
12:35 AM 58.1 °F 41.9 °F 55% 29.92 in 10.0 mi Calm Calm - N/A   Clear
12:55 AM 54.9 °F 41.9 °F 62% 29.92 in 10.0 mi Calm Calm - N/A   Clear
1:15 AM 55.0 °F 43.0 °F 64% 29.92 in 10.0 mi Calm Calm - N/A   Clear
1:35 AM 60.4 °F 40.8 °F 48% 29.92 in 10.0 mi NNE 3.5 mph - N/A   Clear
1:55 AM 60.1 °F 40.3 °F 48% 29.92 in 10.0 mi NNE 3.5 mph - N/A   Clear
2:15 AM 57.0 °F 40.8 °F 55% 29.94 in 10.0 mi Calm Calm - N/A   Clear
2:35 AM 53.8 °F 41.0 °F 62% 29.96 in 10.0 mi Calm Calm - N/A   Clear
2:55 AM 52.3 °F 41.0 °F 65% 29.98 in 10.0 mi Calm Calm - N/A   Clear
3:15 AM 54.7 °F 40.5 °F 59% 29.98 in 10.0 mi NNE 3.5 mph - N/A   Clear
3:35 AM 57.6 °F 38.5 °F 49% 29.98 in 10.0 mi NE 3.5 mph - N/A   Clear
3:55 AM 57.2 °F 38.3 °F 49% 29.98 in 10.0 mi NE 3.5 mph - N/A   Clear
4:15 AM 56.3 °F 37.8 °F 50% 29.98 in 10.0 mi NE 3.5 mph - N/A   Clear
4:35 AM 55.9 °F 37.6 °F 50% 29.99 in 10.0 mi Calm Calm - N/A   Clear
4:55 AM 50.5 °F 38.8 °F 64% 30.00 in 10.0 mi West 3.5 mph - N/A   Clear
5:15 AM 49.5 °F 38.8 °F 67% 29.99 in 10.0 mi NNW 3.5 mph - N/A   Clear
5:35 AM 48.2 °F 38.8 °F 70% 30.00 in 10.0 mi Calm Calm - N/A   Clear
5:55 AM 46.4 °F 38.8 °F 75% 30.01 in 10.0 mi Calm Calm - N/A   Clear
6:15 AM 49.1 °F 37.9 °F 65% 30.01 in 10.0 mi Calm Calm - N/A   Clear
6:35 AM 47.3 °F 37.8 °F 69% 30.02 in 10.0 mi NW 3.5 mph - N/A   Clear
6:55 AM 46.9 °F 37.8 °F 70% 30.03 in 10.0 mi NW 3.5 mph - N/A   Clear
7:35 AM 44.6 °F 38.3 °F 79% 30.05 in 7.0 mi Calm Calm - N/A   Clear
7:55 AM 45.7 °F 38.5 °F 76% 30.05 in 7.0 mi Calm Calm - N/A   Clear
8:15 AM 48.4 °F 38.7 °F 69% 30.06 in 7.0 mi NNW 3.5 mph - N/A   Clear
8:35 AM 49.5 °F 38.5 °F 66% 30.06 in 7.0 mi Calm Calm - N/A   Clear
8:55 AM 51.3 °F 38.5 °F 62% 30.06 in 10.0 mi North 3.5 mph - N/A   Clear
9:15 AM 53.1 °F 38.7 °F 58% 30.07 in 10.0 mi North 4.6 mph - N/A   Clear
9:35 AM 55.8 °F 38.3 °F 52% 30.08 in 10.0 mi North 3.5 mph - N/A   Clear
9:55 AM 58.8 °F 38.5 °F 47% 30.08 in 10.0 mi NE 3.5 mph - N/A   Clear
10:15 AM 61.3 °F 38.7 °F 43% 30.09 in 10.0 mi Calm Calm - N/A   Clear
10:35 AM 62.8 °F 38.1 °F 40% 30.10 in 10.0 mi ENE 4.6 mph - N/A   Clear
11:35 AM 70.0 °F 37.6 °F 31% 30.10 in 10.0 mi ENE 5.8 mph - N/A   Clear
11:55 AM 70.0 °F 37.0 °F 30% 30.10 in 10.0 mi NNE 5.8 mph - N/A   Clear
12:15 PM 71.6 °F 36.3 °F 28% 30.10 in 10.0 mi NNE 9.2 mph - N/A   Clear
12:35 PM 72.1 °F 35.6 °F 26% 30.10 in 10.0 mi NE 8.1 mph - N/A   Clear
12:55 PM 72.5 °F 32.2 °F 23% 30.10 in 10.0 mi NNE 5.8 mph - N/A   Clear
1:15 PM 74.3 °F 32.4 °F 21% 30.09 in 10.0 mi NE 8.1 mph - N/A   Clear
1:35 PM 74.8 °F 31.3 °F 20% 30.08 in 10.0 mi North 9.2 mph - N/A   Clear
1:55 PM 75.2 °F 30.6 °F 19% 30.07 in 10.0 mi NNE 9.2 mph - N/A   Clear
2:15 PM 76.5 °F 31.3 °F 19% 30.07 in 10.0 mi NNE 8.1 mph - N/A   Clear
2:35 PM 76.5 °F 30.2 °F 18% 30.07 in 10.0 mi NE 9.2 mph - N/A   Clear
2:55 PM 77.7 °F 31.3 °F 18% 30.07 in 10.0 mi NNE 6.9 mph - N/A   Clear
3:15 PM 77.4 °F 31.3 °F 19% 30.06 in 10.0 mi NNE 5.8 mph - N/A   Clear
3:35 PM 78.3 °F 31.8 °F 18% 30.07 in 10.0 mi NNE 5.8 mph 16.1 mph N/A   Clear
3:55 PM 78.6 °F 31.8 °F 18% 30.07 in 10.0 mi NNE 6.9 mph - N/A   Clear
4:15 PM 78.3 °F 30.7 °F 18% 30.07 in 10.0 mi NE 6.9 mph - N/A   Clear
4:35 PM 77.4 °F 30.4 °F 18% 30.07 in 10.0 mi NE 5.8 mph - N/A   Clear
5:15 PM 75.7 °F 28.4 °F 17% 30.08 in 10.0 mi NNE 3.5 mph - N/A   Clear
5:35 PM 75.6 °F 30.6 °F 19% 30.08 in 10.0 mi NE 4.6 mph - N/A   Clear
5:55 PM 74.8 °F 32.0 °F 21% 30.09 in 10.0 mi North 3.5 mph - N/A   Clear
6:15 PM 74.1 °F 30.7 °F 20% 30.09 in 10.0 mi NNE 3.5 mph - N/A   Clear
6:35 PM 72.5 °F 30.2 °F 21% 30.10 in 10.0 mi NNE 3.5 mph - N/A   Clear
6:55 PM 71.6 °F 30.0 °F 21% 30.10 in 10.0 mi Calm Calm - N/A   Clear
7:15 PM 69.8 °F 29.3 °F 22% 30.10 in 10.0 mi North 3.5 mph - N/A   Clear
7:35 PM 68.4 °F 29.1 °F 23% 30.11 in 10.0 mi Calm Calm - N/A   Clear
7:55 PM 63.5 °F 31.1 °F 30% 30.12 in 10.0 mi Calm Calm - N/A   Clear
8:35 PM 57.6 °F 31.6 °F 37% 30.13 in 10.0 mi Calm Calm - N/A   Clear
8:55 PM 55.8 °F 30.9 °F 39% 30.13 in 7.0 mi Calm Calm - N/A   Clear
9:15 PM 55.4 °F 30.2 °F 38% 30.14 in 10.0 mi Calm Calm - N/A   Clear
9:35 PM 55.6 °F 28.8 °F 36% 30.14 in 10.0 mi Calm Calm - N/A   Clear
9:55 PM 53.1 °F 29.7 °F 41% 30.15 in 10.0 mi Calm Calm - N/A   Clear
10:15 PM 50.0 °F 29.7 °F 46% 30.16 in 10.0 mi Calm Calm - N/A   Clear
10:35 PM 53.4 °F 27.3 °F 37% 30.15 in 10.0 mi Calm Calm - N/A   Clear
10:55 PM 51.8 °F 27.7 °F 39% 30.15 in 10.0 mi Calm Calm - N/A   Clear
11:15 PM 50.4 °F 31.6 °F 49% 30.15 in 10.0 mi Calm Calm - N/A   Clear
11:35 PM 50.4 °F 32.0 °F 49% 30.16 in 10.0 mi Calm Calm - N/A   Clear
11:55 PM 50.4 °F 32.0 °F 49% 30.16 in 10.0 mi Calm Calm - N/A   Clear